KAL9255 KDFW-KLAX

Flight info

Callsign KAL9255
Flight time N/A
Altitude 34000
Route KATZZ2 BRHMA CNX ONM SJN DRK J231 HIPPI GABBL HLYWD1
Aircraft B77L/H-SDE1E2E3FGHIJ2J3J4J5M1RWXY/LB1D1

Departure

Time 2026-05-04 05:31
Airport Dallas Fort Worth International Airport (KDFW)

Arrival

Time N/A
Airport Los Angeles International Airport (KLAX)
Time Latitude Longitude Altitude Speed Heading
2026-05-04 05:00 32.89725 -97.05991 629 ft 0 kts
2026-05-04 05:15 32.89721 -97.05991 632 ft 3 kts
2026-05-04 05:15 32.89694 -97.05991 631 ft 4 kts
2026-05-04 05:15 32.89671 -97.05991 632 ft 3 kts 12°
2026-05-04 05:16 32.89656 -97.05996 633 ft 4 kts 60°
2026-05-04 05:16 32.89651 -97.06022 633 ft 4 kts 90°
2026-05-04 05:16 32.89651 -97.06050 633 ft 1 kts 90°
2026-05-04 05:16 32.89651 -97.06056 630 ft 0 kts 90°
2026-05-04 05:21 32.89651 -97.06053 631 ft 2 kts 90°
2026-05-04 05:21 32.89651 -97.06020 633 ft 5 kts 90°
2026-05-04 05:21 32.89651 -97.05971 633 ft 6 kts 90°
2026-05-04 05:21 32.89653 -97.05912 627 ft 10 kts 82°
2026-05-04 05:22 32.89657 -97.05829 629 ft 10 kts 89°
2026-05-04 05:22 32.89711 -97.05793 620 ft 10 kts
2026-05-04 05:22 32.89783 -97.05792 627 ft 10 kts
2026-05-04 05:22 32.89858 -97.05792 627 ft 12 kts
2026-05-04 05:23 32.89944 -97.05791 626 ft 14 kts
2026-05-04 05:23 32.90046 -97.05791 627 ft 16 kts
2026-05-04 05:23 32.90160 -97.05791 626 ft 17 kts
2026-05-04 05:23 32.90287 -97.05789 626 ft 19 kts
2026-05-04 05:24 32.90419 -97.05788 627 ft 19 kts
2026-05-04 05:24 32.90551 -97.05788 625 ft 19 kts
2026-05-04 05:24 32.90683 -97.05787 626 ft 19 kts
2026-05-04 05:24 32.90815 -97.05787 627 ft 19 kts
2026-05-04 05:25 32.90911 -97.05772 630 ft 12 kts 43°
2026-05-04 05:25 32.90916 -97.05674 621 ft 12 kts 90°
2026-05-04 05:25 32.90916 -97.05575 620 ft 12 kts 90°
2026-05-04 05:25 32.90916 -97.05475 620 ft 12 kts 90°
2026-05-04 05:26 32.90916 -97.05376 620 ft 12 kts 90°
2026-05-04 05:26 32.90929 -97.05281 631 ft 12 kts 40°
2026-05-04 05:26 32.91013 -97.05273 627 ft 12 kts 360°
2026-05-04 05:26 32.91100 -97.05272 626 ft 12 kts
2026-05-04 05:27 32.91186 -97.05272 631 ft 12 kts
2026-05-04 05:28 32.91539 -97.05069 622 ft 7 kts 181°
2026-05-04 05:29 32.91486 -97.05074 626 ft 12 kts 181°
2026-05-04 05:29 32.91270 -97.05075 626 ft 61 kts 180°
2026-05-04 05:29 32.90625 -97.05079 626 ft 121 kts 180°
2026-05-04 05:29 32.89663 -97.05083 626 ft 157 kts 180°
2026-05-04 05:31 32.80790 -97.05198 3100 ft 231 kts 182°
2026-05-04 05:31 32.79120 -97.05231 3694 ft 240 kts 183°
2026-05-04 05:32 32.77415 -97.05269 4198 ft 251 kts 183°
2026-05-04 05:32 32.75638 -97.05311 4802 ft 259 kts 183°
2026-05-04 05:32 32.73823 -97.05356 5458 ft 262 kts 184°
2026-05-04 05:33 32.70693 -97.07282 6618 ft 265 kts 237°
2026-05-04 05:33 32.69953 -97.09258 7179 ft 266 kts 256°
2026-05-04 05:33 32.69521 -97.11426 7718 ft 273 kts 257°
2026-05-04 05:33 32.69116 -97.13645 8357 ft 274 kts 264°
2026-05-04 05:34 32.69164 -97.15915 8920 ft 278 kts 277°
2026-05-04 05:34 32.69349 -97.18217 9590 ft 280 kts 276°
2026-05-04 05:34 32.69500 -97.20534 10235 ft 284 kts 275°
2026-05-04 05:34 32.69648 -97.22940 10504 ft 302 kts 275°
2026-05-04 05:35 32.69805 -97.25521 10680 ft 324 kts 276°
2026-05-04 05:35 32.70128 -97.28255 10828 ft 346 kts 281°
2026-05-04 05:35 32.70622 -97.31129 11154 ft 362 kts 282°
2026-05-04 05:35 32.71163 -97.34083 11759 ft 371 kts 282°
2026-05-04 05:36 32.71710 -97.37093 12533 ft 375 kts 282°
2026-05-04 05:36 32.72250 -97.40142 13403 ft 378 kts 281°
2026-05-04 05:36 32.72776 -97.43179 14177 ft 382 kts 281°
2026-05-04 05:36 32.73306 -97.46296 14933 ft 384 kts 281°
2026-05-04 05:37 32.73832 -97.49416 15750 ft 386 kts 281°
2026-05-04 05:37 32.74356 -97.52541 16547 ft 387 kts 281°
2026-05-04 05:37 32.74882 -97.55692 17302 ft 389 kts 281°
2026-05-04 05:38 32.75942 -97.62054 18715 ft 395 kts 281°
2026-05-04 05:38 32.76469 -97.65225 19404 ft 397 kts 281°
2026-05-04 05:38 32.77007 -97.68460 20055 ft 399 kts 281°
2026-05-04 05:38 32.77547 -97.71718 20684 ft 402 kts 281°
2026-05-04 05:39 32.78126 -97.74977 21294 ft 405 kts 283°
2026-05-04 05:39 32.79632 -97.81479 22487 ft 410 kts 286°
2026-05-04 05:39 32.80423 -97.84706 23058 ft 413 kts 286°
2026-05-04 05:40 32.82017 -97.91323 24049 ft 418 kts 285°
2026-05-04 05:40 32.82805 -97.94662 24591 ft 419 kts 285°
2026-05-04 05:40 32.83586 -97.98000 25165 ft 419 kts 285°
2026-05-04 05:41 32.84365 -98.01350 25727 ft 420 kts 285°
2026-05-04 05:41 32.85143 -98.04698 26256 ft 421 kts 285°
2026-05-04 05:41 32.85914 -98.08025 26738 ft 423 kts 285°
2026-05-04 05:41 32.86697 -98.11402 27235 ft 424 kts 285°
2026-05-04 05:42 32.87203 -98.13590 27558 ft 425 kts 285°
2026-05-04 05:42 32.87989 -98.16988 28052 ft 426 kts 285°
2026-05-04 05:42 32.88778 -98.20400 28531 ft 427 kts 285°
2026-05-04 05:43 32.89566 -98.23814 28987 ft 429 kts 285°
2026-05-04 05:43 32.90357 -98.27242 29423 ft 430 kts 285°
2026-05-04 05:43 32.91142 -98.30646 29819 ft 431 kts 285°